When you browse on this site, cookies collect data to enhance your experience and personalize the content and advertising you see.
Visit our Privacy Policy to learn more. By continuing to use the site, you agree to this use of cookies and data.
  • In Hungary
  • List of Countries
  • For 7 days
  • Water Temperature
  • Satellite Maps
  • Weather Map
  • News
  • Weather Widgets
  • user-avatar
    Login

    Hourly Weather Suhusha

    Today, 16 December, Sunday

    Time Temperature Precipitation Wind Pressure Humidity
    00:00 -6°C° 0 mm 1 mps 757 mmHg 95%
    01:00 -6°C° 0 mm 1 mps 757 mmHg 95%
    02:00 -6°C° 0 mm 1 mps 757 mmHg 95%
    03:00 -6°C° 0 mm 1 mps 757 mmHg 95%
    04:00 -4°C° 0 mm 1 mps 757 mmHg 95%
    05:00 -4°C° 0 mm 1 mps 757 mmHg 95%
    06:00 -4°C° 0 mm 1 mps 757 mmHg 95%
    07:00 -4°C° 0 mm 1 mps 757 mmHg 95%
    08:00 -6°C° 0 mm 1 mps 757 mmHg 95%
    09:00 -6°C° 0 mm 1 mps 757 mmHg 94%
    10:00 -4°C° 0 mm 1 mps 757 mmHg 93%
    11:00 -4°C° 0 mm 1 mps 758 mmHg 92%
    12:00 -7°C° 0 mm 2 mps 758 mmHg 92%
    13:00 -7°C° 0 mm 2 mps 757 mmHg 92%
    14:00 -10°C° 0 mm 2 mps 757 mmHg 85%
    15:00 -12°C° 0 mm 2 mps 757 mmHg 85%
    16:00 -12°C° 0 mm 2 mps 757 mmHg 85%
    17:00 -13°C° 0 mm 2 mps 757 mmHg 85%
    18:00 -13°C° 0 mm 2 mps 757 mmHg 85%
    19:00 -13°C° 0 mm 2 mps 757 mmHg 85%
    20:00 -14°C° 0 mm 2 mps 757 mmHg 84%
    21:00 -14°C° 0 mm 2 mps 756 mmHg 86%
    22:00 -14°C° 0 mm 2 mps 756 mmHg 87%
    23:00 -14°C° 0 mm 2 mps 756 mmHg 88%

    Tomorrow, 17 December, Monday

    Time Temperature Precipitation Wind Pressure Humidity
    00:00 -15°C° 0 mm 2 mps 756 mmHg 90%
    01:00 -15°C° 0 mm 2 mps 756 mmHg 91%
    02:00 -15°C° 0 mm 2 mps 756 mmHg 92%
    03:00 -15°C° 0 mm 2 mps 756 mmHg 92%
    04:00 -15°C° 0 mm 2 mps 756 mmHg 93%
    05:00 -15°C° 0 mm 2 mps 756 mmHg 93%
    06:00 -15°C° 0 mm 2 mps 756 mmHg 92%
    07:00 -15°C° 0 mm 2 mps 755 mmHg 91%
    08:00 -15°C° 0 mm 2 mps 755 mmHg 90%
    09:00 -14°C° 0 mm 2 mps 755 mmHg 88%
    10:00 -14°C° 0 mm 2 mps 755 mmHg 87%
    11:00 -13°C° 0 mm 2 mps 755 mmHg 85%
    12:00 -13°C° 0 mm 2 mps 755 mmHg 85%
    13:00 -13°C° 0 mm 2 mps 755 mmHg 86%
    14:00 -13°C° 0 mm 2 mps 755 mmHg 86%
    15:00 -13°C° 0 mm 2 mps 755 mmHg 87%
    16:00 -14°C° 0 mm 2 mps 755 mmHg 89%
    17:00 -15°C° 0 mm 2 mps 755 mmHg 90%
    18:00 -15°C° 0 mm 2 mps 755 mmHg 89%
    19:00 -15°C° 0 mm 2 mps 755 mmHg 89%
    20:00 -15°C° 0 mm 2 mps 755 mmHg 88%
    21:00 -15°C° 0 mm 2 mps 755 mmHg 88%
    22:00 -16°C° 0 mm 2 mps 755 mmHg 88%
    23:00 -16°C° 0 mm 2 mps 755 mmHg 88%

    Day after tomorrow, 18 December, Tuesday

    Time Temperature Precipitation Wind Pressure Humidity
    00:00 -16°C° 0 mm 2 mps 755 mmHg 89%
    01:00 -16°C° 0 mm 2 mps 755 mmHg 89%
    02:00 -16°C° 0 mm 2 mps 755 mmHg 90%
    03:00 -16°C° 0 mm 2 mps 755 mmHg 91%
    04:00 -16°C° 0 mm 2 mps 755 mmHg 92%
    05:00 -16°C° 0 mm 2 mps 754 mmHg 93%
    06:00 -16°C° 0 mm 2 mps 754 mmHg 93%
    07:00 -16°C° 0 mm 2 mps 755 mmHg 94%
    08:00 -16°C° 0 mm 2 mps 755 mmHg 94%
    09:00 -15°C° 0 mm 2 mps 755 mmHg 93%
    10:00 -15°C° 0 mm 2 mps 755 mmHg 92%
    11:00 -15°C° 0 mm 3 mps 755 mmHg 90%
    12:00 -14°C° 0 mm 2 mps 755 mmHg 90%
    13:00 -13°C° 0 mm 2 mps 755 mmHg 90%
    14:00 -13°C° 0 mm 2 mps 754 mmHg 91%
    15:00 -14°C° 0 mm 2 mps 754 mmHg 92%
    16:00 -14°C° 0 mm 2 mps 754 mmHg 94%
    17:00 -14°C° 0 mm 2 mps 754 mmHg 95%
    18:00 -14°C° 0 mm 2 mps 754 mmHg 95%
    19:00 -14°C° 0 mm 2 mps 754 mmHg 95%
    20:00 -14°C° 0 mm 2 mps 755 mmHg 95%
    21:00 -14°C° 0 mm 2 mps 755 mmHg 95%
    22:00 -14°C° 0 mm 2 mps 755 mmHg 95%
    23:00 -14°C° 0 mm 2 mps 755 mmHg 94%

    19 December, Wednesday

    Time Temperature Precipitation Wind Pressure Humidity
    00:00 -14°C° 0 mm 2 mps 755 mmHg 94%
    01:00 -14°C° 0 mm 2 mps 755 mmHg 95%
    02:00 -14°C° 0 mm 2 mps 755 mmHg 95%
    03:00 -12°C° 0 mm 1 mps 755 mmHg 95%
    04:00 -12°C° 0 mm 1 mps 755 mmHg 95%
    05:00 -12°C° 0 mm 1 mps 755 mmHg 95%
    06:00 -14°C° 0 mm 2 mps 755 mmHg 95%
    07:00 -14°C° 0 mm 2 mps 755 mmHg 95%
    08:00 -14°C° 0 mm 2 mps 755 mmHg 95%
    09:00 -13°C° 0 mm 2 mps 755 mmHg 93%
    10:00 -13°C° 0 mm 2 mps 755 mmHg 92%
    11:00 -12°C° 0 mm 2 mps 755 mmHg 90%
    12:00 -12°C° 0 mm 2 mps 755 mmHg 90%
    13:00 -12°C° 0 mm 2 mps 755 mmHg 90%
    14:00 -9°C° 0 mm 1 mps 755 mmHg 90%
    15:00 -10°C° 0 mm 1 mps 755 mmHg 92%
    16:00 -11°C° 0 mm 1 mps 755 mmHg 94%
    17:00 -11°C° 0 mm 1 mps 755 mmHg 96%
    18:00 -11°C° 0 mm 1 mps 755 mmHg 95%
    19:00 -11°C° 0 mm 1 mps 755 mmHg 95%
    20:00 -11°C° 0 mm 1 mps 755 mmHg 95%
    21:00 -11°C° 0 mm 1 mps 755 mmHg 95%
    22:00 -11°C° 0 mm 1 mps 755 mmHg 96%
    23:00 -12°C° 0 mm 1 mps 755 mmHg 96%

    20 December, Thursday

    Time Temperature Precipitation Wind Pressure Humidity
    00:00 -12°C° 0 mm 1 mps 756 mmHg 96%
    01:00 -12°C° 0 mm 1 mps 756 mmHg 96%
    02:00 -12°C° 0 mm 1 mps 756 mmHg 96%
    03:00 -12°C° 0 mm 1 mps 756 mmHg 96%
    04:00 -12°C° 0 mm 1 mps 756 mmHg 96%
    05:00 -12°C° 0 mm 1 mps 756 mmHg 96%
    06:00 -12°C° 0 mm 1 mps 756 mmHg 96%
    07:00 -12°C° 0 mm 1 mps 756 mmHg 96%
    08:00 -12°C° 0 mm 1 mps 756 mmHg 96%
    09:00 -11°C° 0 mm 1 mps 756 mmHg 94%
    10:00 -11°C° 0 mm 1 mps 756 mmHg 92%
    11:00 -11°C° 0 mm 1 mps 756 mmHg 90%
    12:00 -11°C° 0 mm 1 mps 756 mmHg 90%
    13:00 -11°C° 0 mm 1 mps 755 mmHg 90%
    14:00 -11°C° 0 mm 1 mps 755 mmHg 90%
    15:00 -11°C° 0 mm 1 mps 755 mmHg 92%
    16:00 -12°C° 0 mm 1 mps 755 mmHg 94%
    17:00 -13°C° 0 mm 1 mps 755 mmHg 96%
    18:00 -13°C° 0 mm 1 mps 755 mmHg 96%
    19:00 -13°C° 0 mm 1 mps 755 mmHg 96%
    20:00 -14°C° 0 mm 1 mps 755 mmHg 97%
    21:00 -14°C° 0 mm 1 mps 755 mmHg 97%
    22:00 -14°C° 0 mm 1 mps 755 mmHg 97%
    23:00 -14°C° 0 mm 1 mps 755 mmHg 97%

    21 December, Friday

    Time Temperature Precipitation Wind Pressure Humidity
    00:00 -14°C° 0 mm 1 mps 755 mmHg 97%
    01:00 -14°C° 0 mm 1 mps 755 mmHg 97%
    02:00 -14°C° 0 mm 1 mps 754 mmHg 97%
    03:00 -14°C° 0 mm 1 mps 754 mmHg 97%
    04:00 -14°C° 0 mm 1 mps 754 mmHg 97%
    05:00 -14°C° 0 mm 1 mps 754 mmHg 97%
    06:00 -14°C° 0 mm 1 mps 754 mmHg 97%
    07:00 -14°C° 0 mm 1 mps 754 mmHg 97%
    08:00 -14°C° 0 mm 1 mps 753 mmHg 96%
    09:00 -13°C° 0 mm 1 mps 753 mmHg 95%
    10:00 -15°C° 0 mm 2 mps 753 mmHg 94%
    11:00 -14°C° 0 mm 2 mps 753 mmHg 92%
    12:00 -14°C° 0 mm 2 mps 753 mmHg 92%
    13:00 -12°C° 0 mm 1 mps 753 mmHg 92%
    14:00 -11°C° 0 mm 1 mps 753 mmHg 92%
    15:00 -12°C° 0 mm 1 mps 752 mmHg 93%
    16:00 -13°C° 0 mm 1 mps 752 mmHg 95%
    17:00 -13°C° 0 mm 1 mps 752 mmHg 97%
    18:00 -13°C° 0 mm 1 mps 752 mmHg 97%
    19:00 -13°C° 0 mm 1 mps 752 mmHg 97%
    20:00 -13°C° 0 mm 1 mps 752 mmHg 97%
    21:00 -15°C° 0 mm 2 mps 752 mmHg 96%
    22:00 -15°C° 0 mm 2 mps 752 mmHg 96%
    23:00 -15°C° 0 mm 2 mps 752 mmHg 96%
    Show more